Location: Brunembert
(50.7122°N, 1.8935°E)
Time: 05:06:36
(UTC+00:00)

Cosmos 1812 Rocket - Pass Details

Date: 22 April 2021
Orbit: 606 x 631 km, 82.5° (Epoch: 06 May)

Event Time Altitude Azimuth Distance (km) Brightness Sun altitude
Rises 20:16:08 0° 187° (S) 2,899 6.7 -11.5°
Reaches altitude 10° 20:18:20 10° 187° (S) 2,000 5.9 -11.7°
Maximum altitude 20:22:47 86° 98° (E) 639 3.6 -12.3°
Drops below altitude 10° 20:27:17 10° 11° (N) 2,025 6.6 -12.9°
Sets 20:29:33 0° 11° (N) 2,939 7.4 -13.1°
